sat.trackr.live / text

‹ back to catalog

STARLINK-6301

NORAD 56392 · 2023-061U

PAYLOAD ACTIVE UNKNOWN

§ Identity

Operator
Country
US
Launch date
2023-05-04
Launch site
AFETR
Launch vehicle
Mass (kg)
RCS (m²)

Purposes: comms

External: N2YO · Heavens-Above · Gunter

§ Orbital elements

Epoch: 2026-09-20T02:10:15.089952Z

Period
94.27 min
Inclination
43.0008°
Eccentricity
0.0001052
Mean motion
15.27573752 rev/d
Perigee alt
482.3 km
Apogee alt
483.8 km
Semi-major
6,861.2 km
B*
-3.5096e-6
RAAN
169.3479°
Arg perigee
264.1512°
Mean anomaly
95.9220°
Rev number
18,660

§ Raw data

STARLINK-63011 56392U 23061U   26263.09045243 -.00000359  00000+0 -35096-5 0  99992 56392  43.0008 169.3479 0001052 264.1512  95.9220 15.27573752186602

JSON: /api/v1/satellites/56392 · /tle

For live sub-satellite position, see the globe view (requires WebGL).

§ Visibility from observer

Set your observer location to see the next 7 days of passes ≥ 10°. The values pass through the URL so the page stays shareable.

No JS? Fill the form by hand. The geolocation button needs JavaScript.